Home   Weather   Mersin   Past weeks

Flag for Turkey Past Weather in Mersin, Turkey — Yesterday and Last 2 Weeks

Now
48 °F

Passing clouds.


Feels Like: 48 °F
Forecast: 39 / 58 °F
Wind: 1 mph from North

Location: Adana / Sakirpasa

Current Time: Dec 5, 2016 at 7:30:06 am

Latest Report: Dec 5, 2016 at 6:50 am


Visibility: N/A

Pressure: 30.18 "Hg

Humidity: 87%

Dew Point: 45 °F

Location of MersinLocation

Past Weather in Mersin — Graph

°F

Mersin Temperature Yesterday

Maximum temperature yesterday: 64 °F (at 1:20 pm)
Minimum temperature yesterday: 41 °F (at 2:50 am)
Average temperature yesterday: 54 °F

High & Low Weather Summary for the Past Weeks

 TemperatureHumidityPressure
High79 °F (Nov 20, 2:20 pm)100% (Dec 2, 6:50 am)30.33 "Hg (Dec 2, 6:50 am)
Low37 °F (Nov 24, 5:20 am)8% (Nov 23, 2:50 pm)29.59 "Hg (Dec 1, 10:50 pm)
Average55 °F46%30.07 "Hg
* Reported Nov 20 5:20 am — Dec 5 5:50 am, Mersin, Weather by CustomWeather, © 2016

Note: Actual official high and low records may vary slightly from our data, if they occured in-between our weather recording intervals... More about our weather records

Advertising

Mersin Weather History for the Previous 24 Hours

Scroll right to see more
 ConditionsComfort  
Time TempWeatherWind HumidityBarometerVisibility
5:50 am
Mon, Dec 5
48 °FClear.No wind82%30.21 "Hg10 mi
5:20 am48 °FPassing clouds.3 mph87%30.21 "HgN/A
4:50 am50 °FPassing clouds.No wind82%30.21 "HgN/A
4:20 am52 °FPassing clouds.3 mph77%30.21 "HgN/A
3:50 am52 °FPassing clouds.3 mph82%30.21 "HgN/A
3:20 am52 °FPassing clouds.3 mph82%30.21 "HgN/A
2:50 am52 °FPassing clouds.3 mph82%30.21 "HgN/A
2:20 am52 °FPassing clouds.2 mph82%30.21 "HgN/A
1:50 am52 °FPassing clouds.5 mph82%30.24 "HgN/A
1:20 am52 °FPassing clouds.2 mph82%30.24 "HgN/A
12:50 am52 °FPassing clouds.2 mph88%30.24 "HgN/A
12:20 am52 °FPassing clouds.3 mph88%30.24 "HgN/A
11:50 pm
Sun, Dec 4
54 °FPassing clouds.3 mph82%30.24 "HgN/A
11:20 pm54 °FFog.3 mph82%30.24 "Hg3 mi
10:50 pm54 °FFog.3 mph82%30.24 "Hg3 mi
10:20 pm54 °FFog.3 mph82%30.24 "Hg2 mi
9:50 pm54 °FFog.5 mph82%30.24 "Hg2 mi
9:20 pm55 °FFog.5 mph77%30.24 "Hg2 mi
8:50 pm54 °FFog.5 mph82%30.27 "Hg1 mi
8:20 pm55 °FFog.5 mph77%30.27 "Hg1 mi
7:50 pm55 °FFog.2 mph82%30.27 "Hg1 mi
7:20 pm55 °FFog.5 mph77%30.27 "Hg2 mi
6:50 pm55 °FFog.6 mph77%30.24 "Hg2 mi
6:20 pm57 °FFog.5 mph72%30.24 "Hg2 mi
5:50 pm59 °FFog.6 mph72%30.24 "Hg1 mi
5:20 pm59 °FBroken clouds.3 mph68%30.24 "Hg2 mi
4:50 pm61 °FBroken clouds.3 mph63%30.24 "HgN/A
4:20 pm63 °FScattered clouds.5 mph59%30.24 "HgN/A
3:50 pm63 °FScattered clouds.3 mph59%30.24 "HgN/A
3:20 pm64 °FScattered clouds.3 mph56%30.24 "HgN/A
2:50 pm64 °FScattered clouds.2 mph56%30.24 "HgN/A
2:20 pm64 °FScattered clouds.5 mph56%30.24 "HgN/A
1:50 pm64 °FScattered clouds.6 mph56%30.24 "HgN/A
1:20 pm64 °FScattered clouds.8 mph52%30.24 "HgN/A
12:50 pm63 °FScattered clouds.7 mph56%30.27 "HgN/A
12:20 pm63 °FScattered clouds.8 mph52%30.27 "HgN/A
11:50 am61 °FBroken clouds.9 mph55%30.30 "HgN/A
11:20 am61 °FBroken clouds.7 mph52%30.30 "HgN/A
10:50 am57 °FBroken clouds.7 mph59%30.30 "HgN/A
10:20 am57 °FBroken clouds.6 mph59%30.33 "HgN/A
9:50 am55 °FBroken clouds.7 mph63%30.30 "HgN/A
9:20 am54 °FBroken clouds.7 mph67%30.30 "HgN/A
8:50 am50 °FBroken clouds.6 mph76%30.30 "HgN/A
8:20 am50 °FPartly sunny.3 mph71%30.30 "HgN/A
7:50 am48 °FPartly sunny.3 mph76%30.30 "HgN/A
7:20 am50 °FPassing clouds.6 mph67%30.30 "HgN/A
Weather by CustomWeather, © 2016

See weather overviewHow to use our weather pages